2021 DL
ephemeris date magn radius delta ra dec elong phase
Today5 Sep 202628.22.390 AU1.396 AU22h07m-12°00'167.6°5.2°
2021 DL - 2026-09-05
astro.vanbuitenen.nl


 
-1 year
-1 month
-1 day
Now
+1 day
+1 month
+1 year

The interactive orbit chart above shows the body's path through the solar system and its position at the given date. Green and blue lines are shown perpendicular to the ecliptic plane: Green if the path is above the ecliptic plane, blue if it is below. (Left-click and drag to rotate the view; Right-click and drag to move the view; Use scroll wheel to zoom in our out.)

The orbital elements of 2021 DL are:

            e (Eccentricity)                : 0.4100161
            a (Semimajor axis)              : 1.7261570
            i (Inclination)                 : 5.15554
            Ω (Longitude of ascending node) : 337.80297
            ω (Argument of perihelion)      : 190.21548
            M (Mean anomaly)                : 113.43638
            Epoch                           : 2026 Jun 09

            L (Longitude of perihelion)     : 347.97799
            B (Latitude of perihelion)      : -0.91314
            P (Orbital period in years)     : 2.27            
        

The light curve chart below shows the estimated development of the minor planet's magnitude.


The all-sky chart below shows the path of the minor planet over the same period as the light curve. The current position is marked yellow.





The following chart shows the path of the minor planet in the next few days. The field of view is optimized for (~10x50) binoculars and finderscopes.




Ephemerides:
Date       Time       RA (2000)    DEC (2000)    delta   radius  elong  phase   PA    magn
2026-09-05 00:00 UT   22 07 45.2   -12 00 37     1.396    2.390  167.6    5.2    67   28.2 
2026-09-05 02:18 UT   22 07 37.8   -12 01 05     1.396    2.390  167.4    5.3    67   28.2 
2026-09-06 00:00 UT   22 06 28.1   -12 05 34     1.400    2.392  166.3    5.7    68   28.2 
2026-09-07 00:00 UT   22 05 12.0   -12 10 24     1.405    2.393  165.0    6.3    68   28.2 
2026-09-08 00:00 UT   22 03 57.0   -12 15 07     1.410    2.394  163.7    6.8    68   28.3 
2026-09-09 00:00 UT   22 02 43.2   -12 19 43     1.416    2.396  162.4    7.3    69   28.3 
2026-09-10 00:00 UT   22 01 30.7   -12 24 11     1.421    2.397  161.2    7.8    69   28.3 
2026-09-11 00:00 UT   22 00 19.6   -12 28 32     1.427    2.398  159.9    8.3    69   28.4 
2026-09-12 00:00 UT   21 59 09.9   -12 32 44     1.434    2.399  158.6    8.8    69   28.4 
2026-09-13 00:00 UT   21 58 01.7   -12 36 47     1.440    2.400  157.4    9.3    69   28.4 
2026-09-14 00:00 UT   21 56 55.0   -12 40 43     1.447    2.402  156.1    9.8    70   28.5 
2026-09-15 00:00 UT   21 55 49.9   -12 44 29     1.454    2.403  154.9   10.2    70   28.5 
2026-09-16 00:00 UT   21 54 46.5   -12 48 07     1.461    2.404  153.6   10.7    70   28.5 
2026-09-17 00:00 UT   21 53 44.8   -12 51 35     1.469    2.405  152.4   11.2    70   28.6 
2026-09-18 00:00 UT   21 52 44.9   -12 54 55     1.476    2.406  151.2   11.6    70   28.6 
2026-09-19 00:00 UT   21 51 46.7   -12 58 05     1.484    2.407  150.0   12.1    70   28.6 
2026-09-20 00:00 UT   21 50 50.3   -13 01 06     1.492    2.408  148.8   12.5    70   28.7 
2026-09-21 00:00 UT   21 49 55.9   -13 03 58     1.501    2.409  147.6   12.9    70   28.7 
2026-09-22 00:00 UT   21 49 03.3   -13 06 41     1.509    2.410  146.4   13.3    71   28.7 
2026-09-23 00:00 UT   21 48 12.6   -13 09 14     1.518    2.411  145.2   13.8    71   28.7 
2026-09-24 00:00 UT   21 47 23.9   -13 11 38     1.527    2.412  144.0   14.2    71   28.8 
2026-09-25 00:00 UT   21 46 37.1   -13 13 52     1.536    2.413  142.8   14.5    71   28.8 
2026-09-26 00:00 UT   21 45 52.2   -13 15 57     1.546    2.414  141.7   14.9    71   28.8 
2026-09-27 00:00 UT   21 45 09.4   -13 17 53     1.556    2.415  140.5   15.3    71   28.8 
2026-09-28 00:00 UT   21 44 28.6   -13 19 39     1.565    2.416  139.4   15.7    71   28.9 
2026-09-29 00:00 UT   21 43 49.8   -13 21 16     1.575    2.417  138.2   16.0    71   28.9 
2026-09-30 00:00 UT   21 43 12.9   -13 22 44     1.586    2.417  137.1   16.4    71   28.9 
2026-10-01 00:00 UT   21 42 38.1   -13 24 03     1.596    2.418  136.0   16.7    71   29.0 
2026-10-02 00:00 UT   21 42 05.4   -13 25 13     1.606    2.419  134.9   17.1    71   29.0 
2026-10-03 00:00 UT   21 41 34.6   -13 26 14     1.617    2.420  133.7   17.4    71   29.0 
2026-10-04 00:00 UT   21 41 05.9   -13 27 05     1.628    2.421  132.6   17.7    71   29.0 
2026-10-05 00:00 UT   21 40 39.2   -13 27 48     1.639    2.421  131.6   18.0    71   29.1 


    Terminology:
            
    delta:  distance between minor planet and earth in AU
    radius: distance between minor planet and sun in AU
    magn:   magnitude (brightness) estimate    
    ra:     right ascension in hours (24h = 360deg)
    dec:    declination in degrees
    elong:  elongation in degrees (angle sun-earth-minor planet)    
    phase:  phase angle in degrees (angle sun-minor planet-earth)        
    AU:     Astronomical Unit (mean distance between earth and sun: 149597870.7 km
    

Orbital elements provided by the MPC (Minor Planet Center).
Calculations by a modified version of AAPlus, a C# implementation of the AA+ project by PJ Naughter from the algorithms presented in the book "Astronomical Algorithms" by Jean Meeus.
NGC2000 dso catalog and star labels from VizieR as provided by the Strasbourg astronomical Data Center.
Tycho2 catalog from the ESO archive.